Location: Ar Ranvel
(48.3000°N, 4.8833°W)
Time: 20:29:48
(UTC+00:00)

Meteor 2-10 Rocket - Pass Details

Date: 29 October 2021
Orbit: 733 x 885 km, 81.2° (Epoch: 30 November)

Event Time Altitude Azimuth Distance (km) Brightness Sun altitude
Rises 05:44:09 0° 342° (NNW) 3,188 6.5 -13.2°
Reaches altitude 10° 05:46:34 10° 336° (NNW) 2,252 5.6 -12.8°
Maximum altitude 05:51:18 43° 266° (W) 1,025 3.7 -12.0°
Drops below altitude 10° 05:56:01 10° 196° (SSW) 2,240 5.8 -11.3°
Sets 05:58:26 0° 190° (S) 3,168 6.7 -10.9°
